| time (UTC) | temp C | wind direction | speed KPH | gust KPH | rain 1hr cm | rain 24hr cm | rain mn cm | humidity % | barometer mb |
| 20260831204004 | 32 | 291 | 8.0 | 16.1 | 0.00 | 0.28 | 0.28 | 67 | 1013.1 |
| 20260831203003 | 32 | 215 | 9.7 | 22.5 | 0.00 | 0.28 | 0.28 | 66 | 1013.3 |
| 20260831202003 | 32 | 280 | 3.2 | 16.1 | 0.00 | 0.28 | 0.28 | 67 | 1013.3 |
| 20260831201004 | 31 | 274 | 8.0 | 16.1 | 0.00 | 0.28 | 0.28 | 68 | 1013.5 |
| 20260831200004 | 31 | 234 | 8.0 | 22.5 | 0.00 | 0.28 | 0.28 | 69 | 1013.3 |
| 20260831195003 | 31 | 293 | 9.7 | 16.1 | 0.00 | 0.28 | 0.28 | 69 | 1013.3 |
| 20260831194004 | 31 | 239 | 4.8 | 22.5 | 0.00 | 0.28 | 0.28 | 68 | 1013.3 |
| 20260831193004 | 30 | 236 | 11.3 | 20.9 | 0.00 | 0.28 | 0.28 | 71 | 1013.3 |
| 20260831192004 | 30 | 291 | 12.9 | 20.9 | 0.00 | 0.28 | 0.28 | 70 | 1014.0 |
| 20260831191004 | 30 | 272 | 9.7 | 16.1 | 0.00 | 0.28 | 0.28 | 70 | 1013.5 |
| 20260831190004 | 30 | 277 | 8.0 | 11.3 | 0.00 | 0.28 | 0.28 | 70 | 1013.5 |
| 20260831185004 | 30 | 226 | 8.0 | 22.5 | 0.00 | 0.28 | 0.28 | 69 | 1013.7 |
| 20260831184003 | 30 | 238 | 4.8 | 14.5 | 0.00 | 0.28 | 0.28 | 68 | 1013.5 |
| 20260831183004 | 30 | 256 | 4.8 | 20.9 | 0.00 | 0.28 | 0.28 | 69 | 1013.5 |
| 20260831182004 | 30 | 229 | 9.7 | 14.5 | 0.00 | 0.28 | 0.28 | 69 | 1013.7 |
| 20260831181004 | 30 | 211 | 8.0 | 11.3 | 0.00 | 0.28 | 0.28 | 69 | 1013.6 |
| 20260831180003 | 30 | 247 | 4.8 | 19.3 | 0.00 | 0.28 | 0.28 | 70 | 1013.9 |
| 20260831175004 | 30 | 271 | 8.0 | 12.9 | 0.00 | 0.28 | 0.28 | 70 | 1013.8 |
| 20260831174003 | 28 | 251 | 8.0 | 20.9 | 0.00 | 0.28 | 0.28 | 71 | 1014.0 |
| 20260831173003 | 29 | 177 | 9.7 | 16.1 | 0.00 | 0.28 | 0.28 | 70 | 1013.8 |
| 20260831171003 | 29 | 202 | 8.0 | 19.3 | 0.00 | 0.28 | 0.28 | 69 | 1013.9 |
| 20260831165004 | 29 | 193 | 4.8 | 19.3 | 0.00 | 0.28 | 0.28 | 70 | 1013.9 |
| 20260831163004 | 28 | 199 | 6.4 | 20.9 | 0.00 | 0.28 | 0.28 | 71 | 1013.9 |
| 20260831161003 | 28 | 206 | 9.7 | 16.1 | 0.00 | 0.28 | 0.28 | 72 | 1014.1 |
| 20260831155003 | 27 | 196 | 8.0 | 20.9 | 0.00 | 0.28 | 0.28 | 73 | 1014.6 |
| 20260831154003 | 27 | 203 | 11.3 | 19.3 | 0.00 | 0.28 | 0.28 | 72 | 1014.3 |
| 20260831153003 | 27 | 262 | 9.7 | 16.1 | 0.00 | 0.28 | 0.28 | 73 | 1014.4 |
| 20260831152003 | 27 | 214 | 9.7 | 22.5 | 0.00 | 0.28 | 0.28 | 73 | 1014.4 |
| 20260831151003 | 27 | 212 | 9.7 | 14.5 | 0.00 | 0.28 | 0.28 | 75 | 1014.2 |
| 20260831150004 | 26 | 222 | 9.7 | 22.5 | 0.00 | 0.28 | 0.28 | 77 | 1014.6 |
| 20260831145004 | 26 | 177 | 9.7 | 14.5 | 0.00 | 0.28 | 0.28 | 78 | 1014.3 |
| 20260831144004 | 26 | 222 | 11.3 | 16.1 | 0.00 | 0.28 | 0.28 | 79 | 1014.3 |
| 20260831143003 | 26 | 203 | 4.8 | 14.5 | 0.00 | 0.28 | 0.28 | 80 | 1014.3 |
| 20260831142003 | 25 | 191 | 4.8 | 12.9 | 0.00 | 0.28 | 0.28 | 82 | 1014.2 |
| 20260831141003 | 25 | 133 | 3.2 | 8.0 | 0.00 | 0.28 | 0.28 | 83 | 1014.5 |
| 20260831140003 | 25 | 176 | 3.2 | 8.0 | 0.00 | 0.28 | 0.28 | 85 | 1014.9 |
| 20260831135004 | 24 | 140 | 3.2 | 8.0 | 0.00 | 0.28 | 0.28 | 87 | 1014.9 |
| 20260831134004 | 23 | 99 | 3.2 | 9.7 | 0.00 | 0.28 | 0.28 | 90 | 1014.9 |
| 20260831133004 | 23 | 102 | 3.2 | 11.3 | 0.00 | 0.28 | 0.28 | 91 | 1014.6 |
| 20260831132004 | 22 | 105 | 3.2 | 9.7 | 0.00 | 0.28 | 0.28 | 95 | 1014.8 |
| 20260831130004 | 21 | 97 | 4.8 | 8.0 | 0.00 | 0.28 | 0.28 | 95 | 1015.0 |
| 20260831125003 | 21 | 67 | 3.2 | 8.0 | 0.00 | 0.28 | 0.28 | 96 | 1014.9 |
| 20260831123003 | 21 | 78 | 1.6 | 4.8 | 0.00 | 0.28 | 0.28 | 98 | 1015.1 |
| 20260831122004 | 21 | 125 | 3.2 | 8.0 | 0.00 | 0.28 | 0.28 | 99 | 1014.8 |
| 20260831120003 | 21 | 319 | 1.6 | 8.0 | 0.00 | 0.28 | 0.28 | 99 | 1015.1 |
| 20260831115004 | 21 | 130 | 3.2 | 8.0 | 0.00 | 0.28 | 0.28 | 99 | 1014.9 |
| 20260831114004 | 21 | 115 | 4.8 | 11.3 | 0.00 | 0.28 | 0.28 | 99 | 1014.9 |
| 20260831113003 | 20 | 152 | 4.8 | 9.7 | 0.00 | 0.28 | 0.28 | 99 | 1014.8 |
| 20260831112004 | 20 | 115 | 4.8 | 8.0 | 0.00 | 0.28 | 0.28 | 99 | 1015.0 |
| 20260831111004 | 20 | 94 | 4.8 | 8.0 | 0.00 | 0.28 | 0.28 | 99 | 1014.8 |
| 20260831110003 | 20 | 81 | 3.2 | 8.0 | 0.00 | 0.28 | 0.28 | 99 | 1015.1 |
| 20260831103004 | 20 | 103 | 3.2 | 8.0 | 0.10 | 0.28 | 0.28 | 99 | 1015.1 |
| 20260831100004 | 21 | 106 | 3.2 | 11.3 | 0.23 | 0.28 | 0.28 | 99 | 1015.6 |
| 20260831095004 | 21 | 109 | 4.8 | 8.0 | 0.18 | 0.20 | 0.20 | 99 | 1016.0 |
| 20260831094004 | 21 | 95 | 1.6 | 4.8 | 0.15 | 0.18 | 0.18 | 99 | 1016.0 |
| 20260831093004 | 21 | 81 | 4.8 | 4.8 | 0.13 | 0.18 | 0.18 | 99 | 1015.7 |
| 20260831092003 | 21 | 56 | 1.6 | 3.2 | 0.13 | 0.15 | 0.15 | 99 | 1015.9 |
| 20260831090004 | 21 | 85 | 1.6 | 4.8 | 0.00 | 0.05 | 0.05 | 99 | 1015.8 |
| 20260831083004 | 21 | 110 | 1.6 | 3.2 | 0.00 | 0.05 | 0.05 | 99 | 1015.9 |
| 20260831082003 | 21 | 92 | 1.6 | 3.2 | 0.00 | 0.05 | 0.05 | 99 | 1016.0 |
| 20260831081004 | 21 | 99 | 1.6 | 3.2 | 0.00 | 0.05 | 0.05 | 99 | 1015.7 |
| 20260831075004 | 21 | 112 | 1.6 | 4.8 | 0.00 | 0.05 | 0.05 | 99 | 1015.7 |
| 20260831073003 | 21 | 102 | 3.2 | 3.2 | 0.00 | 0.05 | 0.05 | 99 | 1016.1 |
| 20260831071003 | 21 | 90 | 3.2 | 4.8 | 0.00 | 0.05 | 0.05 | 99 | 1016.5 |
| 20260831070003 | 21 | 85 | 3.2 | 3.2 | 0.05 | 0.05 | 0.05 | 98 | 1016.9 |
| 20260831065003 | 21 | 110 | 1.6 | 3.2 | 0.05 | 0.05 | 0.05 | 98 | 1017.0 |
| 20260831064003 | 21 | 128 | 3.2 | 9.7 | 0.05 | 0.05 | 0.05 | 98 | 1017.1 |
| 20260831063004 | 21 | 180 | 4.8 | 4.8 | 0.05 | 0.05 | 0.05 | 98 | 1017.5 |
| 20260831062004 | 21 | 173 | 3.2 | 4.8 | 0.05 | 0.05 | 0.05 | 97 | 1017.6 |
| 20260831061004 | 21 | 192 | 3.2 | 8.0 | 0.03 | 0.03 | 0.03 | 96 | 1017.7 |
| 20260831053004 | 22 | 129 | 1.6 | 8.0 | 0.00 | 0.00 | 0.00 | 94 | 1017.6 |
| 20260831052004 | 22 | 196 | 4.8 | 9.7 | 0.00 | 0.00 | 0.00 | 94 | 1017.8 |
| 20260831051003 | 22 | 200 | 3.2 | 8.0 | 0.00 | 0.00 | 0.00 | 94 | 1017.5 |
| 20260831044003 | 22 | 277 | 1.6 | 3.2 | 0.00 | 0.00 | 0.00 | 93 | 1017.4 |
| 20260831043004 | 22 | 71 | 0.0 | 3.2 | 0.00 | 0.00 | 0.00 | 93 | 1017.3 |
| 20260831042004 | 22 | 119 | 0.0 | 3.2 | 0.00 | 0.00 | 0.00 | 93 | 1017.0 |
| 20260831040004 | 22 | 84 | 0.0 | 3.2 | 0.00 | 0.00 | 0.00 | 93 | 1017.1 |
| 20260831035004 | 22 | 103 | 1.6 | 1.6 | 0.00 | 0.00 | 0.00 | 93 | 1017.1 |
| 20260831034003 | 22 | 94 | 1.6 | 3.2 | 0.00 | 0.00 | 0.00 | 93 | 1017.3 |
| 20260831033004 | 22 | 84 | 1.6 | 4.8 | 0.00 | 0.00 | 0.00 | 92 | 1017.2 |
| 20260831032004 | 22 | 103 | 1.6 | 3.2 | 0.00 | 0.00 | 0.00 | 92 | 1017.1 |
| 20260831030004 | 22 | 124 | 1.6 | 3.2 | 0.00 | 0.00 | 0.00 | 91 | 1017.0 |
| 20260831025004 | 22 | 95 | 0.0 | 3.2 | 0.00 | 0.00 | 0.00 | 91 | 1017.0 |
| 20260831022003 | 22 | 72 | 3.2 | 8.0 | 0.00 | 0.00 | 0.00 | 89 | 1016.9 |
| 20260831021004 | 22 | 83 | 1.6 | 9.7 | 0.00 | 0.00 | 0.00 | 88 | 1016.8 |
| 20260831020004 | 22 | 80 | 3.2 | 8.0 | 0.00 | 0.00 | 0.00 | 88 | 1016.5 |
| 20260831014004 | 22 | 113 | 1.6 | 3.2 | 0.00 | 0.00 | 0.00 | 88 | 1016.5 |
| 20260831013004 | 23 | 92 | 1.6 | 3.2 | 0.00 | 0.00 | 0.00 | 87 | 1016.8 |
| 20260831012003 | 23 | 126 | 1.6 | 4.8 | 0.00 | 0.00 | 0.00 | 87 | 1016.8 |
| 20260831011004 | 23 | 86 | 4.8 | 8.0 | 0.00 | 0.00 | 0.00 | 87 | 1016.5 |
| 20260831010004 | 23 | 84 | 3.2 | 4.8 | 0.00 | 0.00 | 0.00 | 88 | 1016.4 |
| 20260831005004 | 23 | 73 | 1.6 | 4.8 | 0.00 | 0.00 | 0.00 | 89 | 1016.3 |
| 20260831003004 | 23 | 115 | 1.6 | 4.8 | 0.00 | 0.00 | 0.00 | 88 | 1016.2 |
| 20260831002004 | 23 | 40 | 3.2 | 9.7 | 0.00 | 0.00 | 0.00 | 89 | 1016.1 |
| 20260831000003 | 23 | 2 | 4.8 | 9.7 | 0.00 | 0.00 | 0.00 | 88 | 1016.2 |
| 20260830235003 | 24 | 19 | 4.8 | 9.7 | 0.00 | 0.00 | 0.00 | 87 | 1016.0 |
| 20260830234004 | 24 | 340 | 1.6 | 8.0 | 0.00 | 0.00 | 0.00 | 86 | 1015.7 |
| 20260830233004 | 24 | 35 | 3.2 | 3.2 | 0.00 | 0.00 | 0.00 | 86 | 1015.8 |
| 20260830232004 | 24 | 39 | 4.8 | 8.0 | 0.00 | 0.00 | 0.00 | 86 | 1016.0 |
| 20260830231004 | 24 | 21 | 3.2 | 8.0 | 0.00 | 0.00 | 0.00 | 86 | 1015.4 |
| 20260830230003 | 24 | 24 | 6.4 | 9.7 | 0.00 | 0.00 | 0.00 | 86 | 1015.5 |
| 20260830225003 | 24 | 29 | 4.8 | 12.9 | 0.00 | 0.00 | 0.00 | 85 | 1015.6 |
| 20260830224004 | 24 | 353 | 4.8 | 9.7 | 0.00 | 0.00 | 0.00 | 84 | 1015.4 |
| 20260830222003 | 25 | 31 | 3.2 | 9.7 | 0.00 | 0.00 | 0.00 | 81 | 1015.1 |
| 20260830221004 | 25 | 46 | 3.2 | 9.7 | 0.00 | 0.00 | 0.00 | 80 | 1015.0 |
| 20260830220004 | 25 | 8 | 4.8 | 11.3 | 0.00 | 0.00 | 0.00 | 79 | 1015.0 |
| 20260830214003 | 25 | 7 | 4.8 | 12.9 | 0.00 | 0.00 | 0.00 | 78 | 1015.1 |
| 20260830213004 | 25 | 21 | 3.2 | 11.3 | 0.00 | 0.00 | 0.00 | 78 | 1015.3 |
| 20260830211004 | 25 | 11 | 6.4 | 11.3 | 0.00 | 0.00 | 0.00 | 78 | 1015.3 |
| 20260830210004 | 25 | 66 | 3.2 | 8.0 | 0.00 | 0.00 | 0.00 | 79 | 1015.6 |
| 20260830205003 | 25 | 33 | 3.2 | 4.8 | 0.00 | 0.00 | 0.00 | 78 | 1015.8 |